Location: Newark
(17.9939°S, 31.0481°E)
Time: 13:14:57
(UTC+00:00)

Vanguard 1 Rocket - Visible Passes

Search period start: 18 November 2019 00:00
Search period end: 28 November 2019 00:00
Orbit: 651 x 4226 km, 34.3° (Epoch: 17 November)

Date Brightness Start Highest point End Pass type
(mag) Time Alt. Az. Time Alt. Az. Time Alt. Az.
18 Nov 9.3 18:10:20 10° WSW 18:32:41 74° SSE 18:37:39 47° E visible
18 Nov 10.2 20:46:25 10° WSW 20:54:55 29° W 20:54:55 29° W visible
19 Nov 10.2 16:53:26 10° WSW 17:18:10 61° SSE 17:30:21 17° E visible
19 Nov 9.2 19:29:36 10° WSW 19:47:38 66° WNW 19:47:38 66° WNW visible
20 Nov 9.2 18:12:55 10° WSW 18:35:40 86° SSE 18:40:21 52° ENE visible
20 Nov 10.5 20:50:01 10° WSW 20:57:38 23° W 20:57:38 23° W visible
21 Nov 10.1 16:56:12 10° WSW 17:21:27 69° SSE 17:33:06 21° ENE visible
21 Nov 9.5 19:32:27 10° WSW 19:50:23 53° NW 19:50:23 53° NW visible
22 Nov 9.3 18:15:30 10° WSW 18:38:24 80° NW 18:43:08 52° NE visible
22 Nov 10.7 20:54:17 10° W 21:00:25 18° WNW 21:00:25 18° WNW visible
23 Nov 10.0 16:58:52 10° WSW 17:24:30 79° SSE 17:35:55 23° ENE visible
23 Nov 9.8 19:35:34 10° WSW 19:53:08 42° NW 19:53:12 42° NW visible
24 Nov 9.5 18:18:10 10° WSW 18:40:54 67° NW 18:46:01 47° NNE visible
24 Nov 10.9 20:59:49 10° W 21:03:18 13° WNW 21:03:18 13° WNW visible
25 Nov 10.0 17:01:29 10° WSW 17:27:18 90° SSE 17:38:50 24° ENE visible
25 Nov 10.2 19:39:06 10° WSW 19:55:16 32° NW 19:56:07 32° NW visible
26 Nov 9.7 18:21:01 10° WSW 18:43:11 55° NW 18:48:58 39° N visible
27 Nov 10.1 17:04:07 10° WSW 17:29:52 78° NW 17:41:50 23° NE visible
27 Nov 10.5 19:43:17 10° W 19:57:23 24° NW 19:59:07 24° NW visible
